Location: ??????
(55.2000°N, 38.3000°E)
Time: 08:47:31
(UTC+00:00)

Cosmos 332 Rocket - Pass Details

Date: 15 November 2025
Orbit: 673 x 692 km, 74.0° (Epoch: 14 December)

Event Time Altitude Azimuth Distance (km) Brightness Sun altitude
Exits shadow 02:58:29 15° 331° (NNW) 1,816 5.6 -16.9°
Maximum altitude 03:02:28 82° 245° (WSW) 697 3.7 -16.4°
Drops below altitude 10° 03:07:14 10° 158° (SSE) 2,115 6.7 -15.7°
Sets 03:09:31 0° 158° (SSE) 3,023 7.6 -15.4°
